Location: ??????
(55.7522°N, 37.6156°E)
Time: 17:53:07
(UTC+00:00)

ATLAS 2AS CENTAUR R/B - Pass Details

Date: 14 June 2025
Orbit: 1040 x 1170 km, 63.7° (Epoch: 12 July)

Event Time Altitude Azimuth Distance (km) Brightness Sun altitude
Exits shadow 23:25:07 - 237° (WSW) 3,642 5.0 -7.2°
Reaches altitude 10° 23:26:58 10° 239° (WSW) 2,980 4.5 -7.1°
Maximum altitude 23:34:03 76° 325° (NW) 1,122 2.9 -6.7°
Drops below altitude 10° 23:40:56 10° 52° (NE) 2,899 6.3 -6.2°
Sets 23:43:33 0° 54° (NE) 3,842 7.0 -6.0°
